This demonstration page uses our WeatherBlox Daily Observations layout. Learn more.

Left ArrowRight Arrow

36.17497, -115.13722

Hourly Observations for August 2, 2021

Temp ( °F °C ) Dew Point ( °F °C ) Humidity (%) Winds ( mph kmh ) Pressure ( in mb ) Visibility ( mi km ) Precip ( " mm )
12:53 am 00:53 Clear 90 32.2 61 16.1 38 38 W 5 7 29.98 1015 10 16 N/A
1:53 am 01:53 Clear 87 30.6 62 16.7 43 43 NW 6 9 29.99 1016 10 16 N/A
2:53 am 02:53 Clear 86 30 59 15 40 40 WNW 5 7 29.98 1015 10 16 N/A
3:53 am 03:53 Clear 85 29.4 60 15.6 43 43 N N/A 29.99 1016 10 16 N/A
4:53 am 04:53 Clear 85 29.4 60 15.6 43 43 WSW 3 6 30.00 1016 10 16 N/A
5:53 am 05:53 Sunny 83 28.3 62 16.7 49 49 N N/A 30.02 1017 10 16 N/A
6:53 am 06:53 Sunny 85 29.4 57 13.9 39 39 NW 6 9 30.04 1017 10 16 N/A
7:53 am 07:53 Sunny 89 31.7 57 13.9 34 34 WNW 5 7 30.05 1018 10 16 N/A
8:53 am 08:53 Sunny 93 33.9 57 13.9 30 30 N N/A 30.06 1018 10 16 N/A
9:53 am 09:53 Sunny 96 35.6 56 13.3 26 26 N N/A 30.05 1018 10 16 N/A
10:53 am 10:53 Sunny 97 36.1 56 13.3 25 25 N N/A 30.04 1017 10 16 N/A
11:53 am 11:53 Sunny 100 37.8 57 13.9 24 24 VRB 5 7 30.01 1016 10 16 N/A
12:53 pm 12:53 Sunny 101 38.3 53 11.7 20 20 ESE 8 13 29.99 1016 10 16 N/A
1:53 pm 13:53 Sunny 104 40 51 10.6 17 17 S 9 15 29.96 1015 10 16 N/A
2:53 pm 14:53 Sunny 107 41.7 46 7.8 13 13 VRB 5 7 29.93 1014 10 16 N/A
3:53 pm 15:53 Sunny 106 41.1 44 6.7 12 12 N N/A 29.92 1013 10 16 N/A
4:53 pm 16:53 Sunny 107 41.7 46 7.8 13 13 N N/A 29.90 1013 10 16 N/A
5:53 pm 17:53 Sunny 107 41.7 47 8.3 13 13 VRB 3 6 29.89 1012 10 16 N/A
6:53 pm 18:53 Sunny 105 40.6 47 8.3 14 14 SSW 3 6 29.88 1012 10 16 N/A
7:53 pm 19:53 Clear 104 40 46 7.8 14 14 WSW 3 6 29.88 1012 10 16 N/A
8:53 pm 20:53 Clear 102 38.9 48 8.9 16 16 N N/A 29.89 1012 10 16 N/A
9:53 pm 21:53 Clear 99 37.2 50 10 19 19 WSW 5 7 29.90 1013 10 16 N/A
10:53 pm 22:53 Clear 95 35 52 11.1 23 23 WNW 5 7 29.90 1013 10 16 N/A
11:53 pm 23:53 Clear 93 33.9 53 11.7 26 26 NNW 5 7 29.91 1013 10 16 N/A

Powered by AerisWeather